Location: Kuffner-Sternwarte
(48.2130°N, 16.2960°E)
Time: 05:08:43
(UTC+02:00)

Envisat - Pass Details

Date: 27 September 2024
Orbit: 762 x 764 km, 98.3° (Epoch: 04 October)

Event Time Altitude Azimuth Distance (km) Brightness Sun altitude
Rises 05:11:32 0° 6° (N) 3,238 6.6 -16.8°
Reaches altitude 10° 05:14:03 10° 356° (N) 2,307 5.6 -16.4°
Maximum altitude 05:18:28 31° 296° (WNW) 1,314 3.8 -15.7°
Enters shadow 05:20:17 25° 260° (W) 1,525 3.9 -15.4°
